| time (UTC) | temp F | wind direction | speed knots | gust knots | rain 1hr in | rain 24hr in | rain mn in | humidity % | barometer mb |
| 20260504201541 | 75 | 188 | 0.0 | 1.7 | 0.00 | 0.00 | 0.00 | 35 | 1011.5 |
| 20260504200048 | 74 | 119 | 0.0 | 2.6 | 0.00 | 0.00 | 0.00 | 34 | 1011.7 |
| 20260504194542 | 76 | 114 | 0.0 | 1.7 | 0.00 | 0.00 | 0.00 | 33 | 1011.9 |
| 20260504193035 | 76 | 136 | 0.0 | 3.5 | 0.00 | 0.00 | 0.00 | 33 | 1012.1 |
| 20260504191549 | 75 | 122 | 1.7 | 5.2 | 0.00 | 0.00 | 0.00 | 33 | 1012.3 |
| 20260504190033 | 77 | 111 | 0.0 | 1.7 | 0.00 | 0.00 | 0.00 | 33 | 1012.5 |
| 20260504184538 | 75 | 144 | 0.0 | 3.5 | 0.00 | 0.00 | 0.00 | 32 | 1012.6 |
| 20260504183040 | 76 | 119 | 0.0 | 0.9 | 0.00 | 0.00 | 0.00 | 31 | 1012.6 |
| 20260504181529 | 76 | 134 | 0.0 | 1.7 | 0.00 | 0.00 | 0.00 | 30 | 1012.9 |
| 20260504180029 | 76 | 114 | 0.0 | 2.6 | 0.00 | 0.00 | 0.00 | 31 | 1013.0 |
| 20260504174527 | 76 | 30 | 0.9 | 1.7 | 0.00 | 0.00 | 0.00 | 30 | 1013.0 |
| 20260504173027 | 76 | 115 | 0.0 | 2.6 | 0.00 | 0.00 | 0.00 | 32 | 1013.1 |
| 20260504171522 | 75 | 112 | 0.0 | 1.7 | 0.00 | 0.00 | 0.00 | 32 | 1013.3 |
| 20260504100106 | 49 | 123 | 0.0 | 0.0 | 0.00 | 0.00 | 0.00 | 86 | 1015.4 |
| 20260504081546 | 48 | 123 | 0.0 | 0.0 | 0.00 | 0.00 | 0.00 | 85 | 1016.5 |
| 20260504050023 | 44 | 123 | 0.0 | 0.0 | 0.00 | 0.00 | 0.00 | 77 | 1016.5 |
| 20260504044530 | 44 | 123 | 0.0 | 0.0 | 0.00 | 0.00 | 0.00 | 76 | 1016.4 |
| 20260504043026 | 44 | 123 | 0.0 | 0.0 | 0.00 | 0.00 | 0.00 | 76 | 1016.4 |
| 20260504041522 | 44 | 123 | 0.0 | 0.0 | 0.00 | 0.00 | 0.00 | 76 | 1016.4 |
| 20260504040017 | 43 | 123 | 0.0 | 0.0 | 0.00 | 0.00 | 0.00 | 76 | 1016.1 |
| 20260504034517 | 43 | 123 | 0.0 | 0.0 | 0.00 | 0.00 | 0.00 | 76 | 1016.0 |
| 20260504033015 | 43 | 123 | 0.0 | 0.0 | 0.00 | 0.00 | 0.00 | 75 | 1015.7 |
| 20260504031513 | 44 | 123 | 0.0 | 0.0 | 0.00 | 0.00 | 0.00 | 75 | 1015.8 |
| 20260504030030 | 44 | 123 | 0.0 | 0.0 | 0.00 | 0.00 | 0.00 | 73 | 1015.6 |
| 20260504024510 | 45 | 123 | 0.0 | 0.0 | 0.00 | 0.00 | 0.00 | 72 | 1015.6 |
| 20260504023008 | 45 | 123 | 0.0 | 0.0 | 0.00 | 0.00 | 0.00 | 71 | 1015.5 |
| 20260504021507 | 46 | 123 | 0.0 | 0.0 | 0.00 | 0.00 | 0.00 | 69 | 1015.6 |
| 20260504020007 | 46 | 123 | 0.0 | 0.0 | 0.00 | 0.00 | 0.00 | 66 | 1015.5 |
| 20260504014519 | 47 | 123 | 0.0 | 0.0 | 0.00 | 0.00 | 0.00 | 65 | 1015.4 |
| 20260504013006 | 48 | 123 | 0.0 | 0.0 | 0.00 | 0.00 | 0.00 | 63 | 1015.3 |
| 20260504011505 | 49 | 123 | 0.0 | 0.0 | 0.00 | 0.00 | 0.00 | 60 | 1015.2 |
| 20260504010006 | 50 | 123 | 0.0 | 0.0 | 0.00 | 0.00 | 0.00 | 59 | 1015.0 |
| 20260504004510 | 51 | 123 | 0.0 | 0.0 | 0.00 | 0.00 | 0.00 | 56 | 1015.0 |
| 20260504003014 | 52 | 123 | 0.0 | 0.0 | 0.00 | 0.00 | 0.00 | 53 | 1014.8 |
| 20260504001505 | 53 | 123 | 0.0 | 0.0 | 0.00 | 0.00 | 0.00 | 51 | 1014.4 |
| 20260504000004 | 55 | 123 | 0.0 | 0.0 | 0.00 | 0.00 | 0.00 | 46 | 1014.4 |
| 20260503234511 | 56 | 123 | 0.0 | 0.0 | 0.00 | 0.00 | 0.00 | 43 | 1014.3 |
| 20260503233004 | 58 | 123 | 0.0 | 0.0 | 0.00 | 0.00 | 0.00 | 41 | 1014.3 |
| 20260503231503 | 59 | 123 | 0.0 | 0.9 | 0.00 | 0.00 | 0.00 | 39 | 1014.4 |
| 20260503230002 | 59 | 124 | 0.0 | 0.9 | 0.00 | 0.00 | 0.00 | 39 | 1014.3 |
| 20260503224502 | 59 | 124 | 0.0 | 1.7 | 0.00 | 0.00 | 0.00 | 37 | 1014.3 |
| 20260503223002 | 59 | 138 | 0.0 | 5.2 | 0.00 | 0.00 | 0.00 | 38 | 1014.2 |
| 20260503221503 | 59 | 117 | 0.9 | 3.5 | 0.00 | 0.00 | 0.00 | 36 | 1014.3 |
| 20260503220000 | 59 | 117 | 0.9 | 7.0 | 0.00 | 0.00 | 0.00 | 36 | 1014.4 |
| 20260503214601 | 59 | 126 | 1.7 | 6.1 | 0.00 | 0.00 | 0.00 | 35 | 1014.1 |
| 20260503213109 | 59 | 123 | 0.9 | 5.2 | 0.00 | 0.00 | 0.00 | 36 | 1014.1 |
| 20260503211559 | 59 | 113 | 2.6 | 7.0 | 0.00 | 0.00 | 0.00 | 36 | 1014.1 |
| 20260503210111 | 59 | 111 | 1.7 | 5.2 | 0.00 | 0.00 | 0.00 | 37 | 1014.1 |
| 20260503204608 | 59 | 122 | 0.9 | 2.6 | 0.00 | 0.00 | 0.00 | 36 | 1013.9 |
| 20260503203104 | 58 | 142 | 1.7 | 7.0 | 0.00 | 0.00 | 0.00 | 36 | 1014.2 |